period_start,C,m1,H,J0,J1,J2,J3,J4,J5,JA,JB,JC,JD,JJ,JK,JN,#
2017-05-27 00:00:11,0.01,0.02,0.00,26.47,29.50,32.16,14.14,46.82,1008.82,2021.99,3485.99,3077.41,3524.99,600.14,584.80,2.98,0000 0000 0000 0000 000000
2017-05-27 00:05:12,0.01,0.02,0.00,26.48,29.51,32.18,14.20,46.65,1008.82,2021.98,3485.85,3077.09,3524.87,600.20,584.77,3.03,0000 0000 0000 0000 000000
2017-05-27 00:10:13,0.02,0.02,0.00,26.51,29.52,32.17,14.08,46.78,1008.83,2021.98,3485.11,3077.00,3524.20,599.82,584.39,3.08,0000 0000 0000 0000 000000
2017-05-27 00:15:14,0.01,0.02,0.00,26.52,29.52,32.19,14.13,46.72,1008.92,2021.96,3484.69,3076.93,3524.00,599.76,584.31,3.13,0000 0000 0000 0000 000000
2017-05-27 00:20:15,0.01,0.02,0.00,26.52,29.52,32.19,14.13,46.68,1008.96,2021.95,3484.06,3076.57,3523.87,600.21,584.83,3.18,0000 0000 0000 0000 000000
2017-05-27 00:25:17,0.01,0.02,0.00,26.53,29.54,32.22,14.15,46.88,1008.94,2021.94,3484.00,3076.11,3523.28,599.82,584.34,3.23,0000 0000 0000 0000 000000
2017-05-27 00:30:18,-0.01,0.02,0.00,26.55,29.55,32.21,14.17,46.75,1008.91,2021.86,3483.99,3076.03,3523.02,599.73,584.18,3.28,0000 0000 0000 0000 000000
2017-05-27 00:35:19,-0.01,0.02,0.00,26.56,29.55,32.22,14.19,46.86,1008.86,2021.57,3483.54,3076.00,3522.99,600.09,584.55,3.33,0000 0000 0000 0000 000000
2017-05-27 00:40:20,0.00,0.02,0.00,26.57,29.55,32.23,14.12,46.76,1009.15,2021.49,3483.02,3075.98,3522.95,599.97,584.62,3.38,0000 0000 0000 0000 000000
2017-05-27 00:45:21,-0.00,0.02,0.00,26.57,29.57,32.22,14.16,46.74,1009.20,2021.49,3483.00,3075.95,3522.72,599.48,584.14,3.43,0000 0000 0000 0000 000000
2017-05-27 00:50:22,-0.01,0.02,0.00,26.57,29.57,32.26,14.16,46.73,1009.07,2021.19,3482.98,3075.76,3522.10,600.29,584.83,3.48,0000 0000 0000 0000 000000
2017-05-27 00:55:23,0.01,0.02,0.00,26.57,29.57,32.26,14.17,46.84,1008.88,2021.08,3482.73,3075.30,3522.01,600.09,584.53,3.53,0000 0000 0000 0000 000000
2017-05-27 01:00:24,0.01,0.02,0.00,26.59,29.59,32.27,14.18,46.85,1008.82,2021.07,3482.13,3075.05,3522.00,599.53,583.93,3.58,0000 0000 0000 0000 000000
2017-05-27 01:05:25,0.01,0.02,0.00,26.61,29.60,32.26,14.15,46.70,1008.84,2021.09,3482.02,3075.00,3521.95,599.77,584.10,3.63,0000 0000 0000 0000 000000
2017-05-27 01:10:26,-0.00,0.02,0.00,26.62,29.60,32.29,14.15,46.72,1008.88,2021.03,3481.99,3075.00,3521.77,599.81,584.16,3.68,0000 0000 0000 0000 000000
2017-05-27 01:15:28,0.01,0.02,0.00,26.63,29.60,32.29,14.16,46.82,1008.86,2021.03,3481.91,3075.00,3521.26,600.21,584.48,3.73,0000 0000 0000 0000 000000
2017-05-27 01:20:29,0.00,0.02,0.00,26.64,29.61,32.32,14.15,46.78,1008.82,2021.02,3481.63,3074.98,3521.02,600.02,584.32,3.78,0000 0000 0000 0000 000000
2017-05-27 01:25:30,0.01,0.02,0.00,26.66,29.62,32.31,14.19,46.79,1008.83,2021.01,3481.09,3074.81,3521.00,600.22,584.25,3.83,0000 0000 0000 0000 000000
2017-05-27 01:30:31,0.01,0.02,0.00,26.67,29.62,32.32,14.09,46.80,1008.99,2021.00,3481.00,3074.37,3520.98,600.13,584.49,3.88,0000 0000 0000 0000 000000
2017-05-27 01:35:32,0.01,0.02,0.00,26.70,29.63,32.34,14.20,46.77,1008.94,2021.00,3480.96,3074.03,3520.58,599.98,584.18,3.93,0000 0000 0000 0000 000000
2017-05-27 01:40:34,0.01,0.03,0.00,26.71,29.65,32.34,14.10,46.76,1009.09,2021.00,3480.58,3074.00,3520.08,600.08,584.31,3.98,0000 0000 0000 0000 000000
2017-05-27 01:45:35,0.00,0.03,0.00,26.72,29.65,32.36,14.15,46.73,1009.20,2021.00,3480.09,3074.00,3520.00,600.38,584.65,4.03,0000 0000 0000 0000 000000
2017-05-27 01:50:37,0.00,0.03,0.00,26.74,29.66,32.36,14.13,46.64,1009.11,2021.00,3480.00,3073.98,3520.00,600.62,584.86,4.08,0000 0000 0000 0000 000000
2017-05-27 01:55:38,0.00,0.03,0.00,26.77,29.67,32.36,14.15,46.70,1009.20,2021.00,3479.99,3073.90,3520.00,600.08,584.33,4.13,0000 0000 0000 0000 000000
2017-05-27 02:00:39,0.02,0.03,0.00,26.79,29.69,32.38,14.13,46.83,1009.28,2020.99,3479.76,3073.54,3519.74,599.90,584.13,4.18,0000 0000 0000 0000 000000
2017-05-27 02:05:40,0.02,0.03,0.00,26.80,29.70,32.39,14.12,46.74,1009.29,2020.99,3479.10,3073.06,3519.10,599.89,584.15,4.23,0000 0000 0000 0000 000000
2017-05-27 02:10:41,0.00,0.03,0.00,26.81,29.71,32.40,14.18,46.77,1009.29,2020.96,3478.97,3073.00,3519.00,599.83,584.06,4.28,0000 0000 0000 0000 000000
2017-05-27 02:15:43,0.01,0.03,0.00,26.81,29.72,32.43,14.14,46.73,1009.29,2020.97,3478.42,3072.94,3518.93,599.92,584.15,4.33,0000 0000 0000 0000 000000
2017-05-27 02:20:44,0.01,0.03,0.00,26.83,29.74,32.46,14.26,46.72,1009.29,2020.90,3478.03,3072.67,3518.51,600.44,584.60,4.38,0000 0000 0000 0000 000000
2017-05-27 02:25:45,0.02,0.03,0.00,26.85,29.75,32.46,14.11,46.80,1009.29,2020.92,3478.00,3072.17,3518.05,599.66,583.82,4.43,0000 0000 0000 0000 000000
2017-05-27 02:30:46,-0.00,0.03,0.00,26.85,29.76,32.48,14.16,46.72,1009.29,2020.85,3477.92,3072.02,3518.00,600.06,584.19,4.48,0000 0000 0000 0000 000000
2017-05-27 02:35:48,-0.01,0.03,0.00,26.87,29.77,32.48,14.15,46.76,1009.29,2020.65,3477.43,3072.00,3518.00,600.03,584.11,4.53,0000 0000 0000 0000 000000
2017-05-27 02:40:49,-0.01,0.03,0.00,26.87,29.77,32.47,14.13,46.74,1009.29,2020.50,3477.04,3072.00,3517.86,599.96,584.06,4.58,0000 0000 0000 0000 000000
2017-05-27 02:45:50,-0.01,0.03,0.00,26.87,29.79,32.49,14.12,46.67,1009.29,2020.21,3476.98,3071.83,3517.15,599.79,583.86,4.63,0000 0000 0000 0000 000000
2017-05-27 02:50:52,0.02,0.03,0.00,26.89,29.80,32.50,14.13,46.66,1009.30,2020.07,3476.50,3071.22,3517.00,600.20,584.35,4.69,0000 0000 0000 0000 000000
2017-05-27 02:55:53,0.00,0.03,0.00,26.90,29.81,32.51,14.20,46.72,1009.31,2020.03,3476.05,3071.03,3516.96,600.09,584.16,4.74,0000 0000 0000 0000 000000
2017-05-27 03:00:54,0.01,0.03,0.00,26.92,29.82,32.54,14.22,46.78,1009.30,2020.01,3475.99,3071.00,3516.48,600.38,584.36,4.79,0000 0000 0000 0000 000000
2017-05-27 03:05:55,0.01,0.03,0.00,26.94,29.84,32.53,14.11,46.73,1009.29,2020.01,3475.68,3070.99,3516.03,599.86,583.75,4.84,0000 0000 0000 0000 000000
2017-05-27 03:10:56,0.01,0.03,0.00,26.95,29.85,32.56,14.11,46.53,1009.30,2020.00,3475.05,3070.94,3516.00,599.96,583.91,4.89,0000 0000 0000 0000 000000
2017-05-27 03:15:58,0.01,0.03,0.00,26.95,29.86,32.56,14.17,46.53,1009.29,2020.00,3475.01,3070.73,3515.95,600.29,584.26,4.94,0000 0000 0000 0000 000000
2017-05-27 03:20:59,0.02,0.03,0.00,26.96,29.87,32.62,14.16,46.62,1009.30,2020.00,3474.98,3070.08,3515.58,599.99,584.06,4.99,0000 0000 0000 0000 000000
2017-05-27 03:26:00,0.01,0.03,0.00,26.98,29.89,32.60,14.21,46.65,1009.31,2020.00,3474.58,3070.02,3515.10,600.38,584.14,5.04,0000 0000 0000 0000 000000
2017-05-27 03:31:02,0.00,0.04,0.00,26.99,29.90,32.58,14.12,46.62,1009.33,2020.00,3474.04,3069.99,3515.00,599.54,583.45,5.09,0000 0000 0000 0000 000000
2017-05-27 03:36:03,0.00,0.04,0.00,27.00,29.92,32.61,14.15,46.69,1009.35,2019.99,3474.00,3069.96,3514.92,599.92,583.89,5.14,0000 0000 0000 0000 000000
2017-05-27 03:41:04,0.04,0.04,0.00,27.02,29.92,32.62,14.12,46.69,1009.48,2019.98,3473.52,3069.46,3514.23,599.82,583.79,5.19,0000 0000 0000 0000 000000
2017-05-27 03:46:06,0.01,0.04,0.00,27.02,29.94,32.67,14.09,46.62,1009.66,2019.97,3473.03,3069.04,3514.01,599.92,584.03,5.24,0000 0000 0000 0000 000000
2017-05-27 03:51:07,0.00,0.04,0.00,27.03,29.95,32.66,14.09,46.60,1009.73,2019.97,3472.99,3069.00,3513.98,599.75,583.88,5.29,0000 0000 0000 0000 000000
2017-05-27 03:56:08,0.01,0.04,0.00,27.05,29.97,32.67,14.10,46.55,1009.73,2019.93,3472.57,3068.98,3513.74,600.11,584.11,5.34,0000 0000 0000 0000 000000
2017-05-27 04:01:09,0.01,0.04,0.00,27.07,29.97,32.68,14.18,46.74,1009.63,2019.91,3472.06,3068.89,3513.19,600.13,583.91,5.39,0000 0000 0000 0000 000000
2017-05-27 04:06:10,0.00,0.04,0.00,27.10,30.00,32.69,14.12,46.61,1009.66,2019.87,3472.00,3068.42,3513.01,600.04,584.03,5.44,0000 0000 0000 0000 000000
2017-05-27 04:11:12,-0.00,0.04,0.00,27.13,30.01,32.71,14.13,46.66,1009.74,2019.71,3471.96,3068.04,3513.00,599.83,583.70,5.49,0000 0000 0000 0000 000000
2017-05-27 04:16:13,-0.01,0.04,0.00,27.15,30.02,32.71,14.16,46.56,1009.67,2019.48,3471.48,3068.00,3512.84,600.34,584.12,5.54,0000 0000 0000 0000 000000
2017-05-27 04:21:14,-0.00,0.04,0.00,27.16,30.04,32.72,14.08,46.45,1009.64,2019.18,3471.02,3067.99,3512.11,600.28,584.09,5.59,0000 0000 0000 0000 000000
2017-05-27 04:26:15,-0.01,0.04,0.00,27.17,30.05,32.73,14.14,46.54,1009.77,2019.08,3470.98,3067.90,3512.01,600.17,583.89,5.64,0000 0000 0000 0000 000000
2017-05-27 04:31:17,0.01,0.04,0.00,27.19,30.07,32.75,14.09,46.56,1009.78,2019.05,3470.77,3067.47,3512.00,599.91,583.67,5.69,0000 0000 0000 0000 000000
2017-05-27 04:36:18,0.02,0.04,0.00,27.20,30.08,32.78,14.11,46.61,1009.78,2019.02,3470.09,3067.06,3511.69,599.94,583.64,5.74,0000 0000 0000 0000 000000
2017-05-27 04:41:19,0.01,0.04,0.00,27.22,30.10,32.79,14.16,46.64,1009.78,2019.01,3470.00,3067.00,3511.15,600.28,583.99,5.79,0000 0000 0000 0000 000000
2017-05-27 04:46:21,0.00,0.04,0.00,27.23,30.11,32.80,14.18,46.48,1009.78,2019.00,3469.80,3066.95,3511.00,599.85,583.49,5.84,0000 0000 0000 0000 000000
2017-05-27 04:51:22,0.03,0.04,0.00,27.24,30.12,32.84,14.12,46.57,1009.78,2019.00,3469.08,3066.51,3510.81,599.99,583.64,5.89,0000 0000 0000 0000 000000
2017-05-27 04:56:23,0.01,0.04,0.00,27.26,30.15,32.84,14.08,46.63,1009.78,2019.00,3468.99,3066.04,3510.10,599.85,583.46,5.94,0000 0000 0000 0000 000000
2017-05-27 05:01:25,0.01,0.04,0.00,27.29,30.16,32.85,14.14,46.45,1009.78,2019.00,3468.44,3066.00,3510.00,600.08,583.67,5.99,0000 0000 0000 0000 000000
2017-05-27 05:06:26,0.00,0.04,0.00,27.31,30.17,32.88,14.18,46.47,1009.79,2018.99,3468.02,3065.93,3509.85,600.32,583.95,6.04,0000 0000 0000 0000 000000
2017-05-27 05:11:27,0.02,0.05,0.00,27.33,30.20,32.90,14.11,46.49,1009.79,2018.97,3467.91,3065.43,3509.14,599.78,583.30,6.09,0000 0000 0000 0000 000000
2017-05-27 05:16:29,0.01,0.05,0.00,27.35,30.21,32.91,14.07,46.45,1009.79,2018.93,3467.19,3065.03,3508.99,599.70,583.28,6.14,0000 0000 0000 0000 000000
2017-05-27 05:21:30,-0.01,0.05,0.00,27.36,30.22,32.91,14.19,46.52,1009.80,2018.68,3466.98,3064.99,3508.50,599.89,583.38,6.19,0000 0000 0000 0000 000000
2017-05-27 05:26:31,0.00,0.05,0.00,27.35,30.25,32.95,14.10,46.57,1009.85,2018.35,3466.34,3064.65,3508.01,600.07,583.63,6.24,0000 0000 0000 0000 000000
2017-05-27 05:31:32,0.01,0.05,0.00,27.35,30.26,32.99,14.18,46.68,1009.87,2018.29,3466.00,3064.09,3507.98,600.11,583.52,6.29,0000 0000 0000 0000 000000
2017-05-27 05:36:33,0.02,0.05,0.00,27.36,30.27,32.98,14.19,46.67,1009.89,2018.19,3465.58,3064.00,3507.35,600.15,583.66,6.34,0000 0000 0000 0000 000000
2017-05-27 05:41:35,0.00,0.05,0.00,27.36,30.29,32.98,14.11,46.37,1009.83,2018.05,3464.92,3063.77,3506.97,600.15,583.64,6.39,0000 0000 0000 0000 000000
2017-05-27 05:46:36,0.04,0.05,0.00,27.36,30.30,33.00,14.13,46.52,1009.82,2018.01,3464.07,3063.07,3506.33,600.18,583.57,6.44,0000 0000 0000 0000 000000
2017-05-27 05:51:37,0.04,0.05,0.00,27.37,30.32,33.01,14.17,46.48,1009.89,2018.00,3463.16,3062.48,3505.60,600.24,583.72,6.49,0000 0000 0000 0000 000000
2017-05-27 05:56:38,0.01,0.05,0.00,27.38,30.32,33.01,14.17,46.48,1009.88,2018.00,3462.68,3062.01,3505.02,600.09,583.47,6.54,0000 0000 0000 0000 000000
2017-05-27 06:01:39,0.00,0.05,0.00,27.37,30.35,33.01,14.13,46.48,1009.94,2018.00,3462.08,3062.00,3504.99,600.07,583.55,6.59,0000 0000 0000 0000 000000
2017-05-27 06:06:41,0.00,0.05,0.00,27.36,30.35,33.03,14.11,46.50,1009.99,2018.00,3461.99,3061.96,3504.79,599.91,583.42,6.64,0000 0000 0000 0000 000000
2017-05-27 06:11:42,0.03,0.05,0.00,27.35,30.36,33.05,14.14,46.52,1010.16,2017.99,3461.49,3061.68,3504.16,599.91,583.59,6.69,0000 0000 0000 0000 000000
2017-05-27 06:16:43,0.01,0.06,0.00,27.35,30.37,33.04,14.08,46.51,1010.26,2017.99,3461.02,3061.15,3504.01,599.57,583.26,6.74,0000 0000 0000 0000 000000
2017-05-27 06:21:44,0.00,0.06,0.00,27.35,30.37,33.07,14.10,46.51,1010.27,2017.98,3460.97,3061.01,3503.98,600.00,583.80,6.79,0000 0000 0000 0000 000000
2017-05-27 06:26:46,0.02,0.06,0.00,27.35,30.39,33.06,14.13,46.48,1010.27,2017.99,3460.27,3060.99,3503.54,600.04,583.68,6.84,0000 0000 0000 0000 000000
2017-05-27 06:31:47,0.01,0.06,0.00,27.37,30.40,33.07,14.15,46.58,1010.27,2017.98,3460.00,3060.86,3503.03,600.17,583.89,6.89,0000 0000 0000 0000 000000
2017-05-27 06:36:49,0.02,0.06,0.00,27.37,30.40,33.08,14.09,46.56,1010.27,2017.96,3459.79,3060.29,3502.99,599.73,583.43,6.94,0000 0000 0000 0000 000000
2017-05-27 06:41:50,0.02,0.06,0.00,27.36,30.41,33.08,14.15,46.51,1010.27,2017.98,3459.13,3060.03,3502.63,600.07,583.85,6.99,0000 0000 0000 0000 000000
2017-05-27 06:46:51,0.00,0.06,0.00,27.37,30.42,33.09,14.06,46.58,1010.27,2017.96,3458.99,3060.00,3502.05,599.80,583.53,7.04,0000 0000 0000 0000 000000
2017-05-27 06:51:52,0.01,0.06,0.00,27.37,30.42,33.08,14.14,46.55,1010.27,2017.94,3458.67,3059.97,3502.00,600.16,583.91,7.09,0000 0000 0000 0000 000000
2017-05-27 06:56:53,0.00,0.06,0.00,27.37,30.43,33.10,14.10,46.38,1010.27,2017.75,3458.03,3059.51,3501.75,600.02,583.78,7.15,0000 0000 0000 0000 000000
2017-05-27 07:01:54,-0.00,0.06,0.00,27.37,30.45,33.11,14.09,46.42,1010.28,2017.56,3457.95,3059.04,3501.10,599.72,583.33,7.20,0000 0000 0000 0000 000000
2017-05-27 07:06:55,0.01,0.06,0.00,27.37,30.45,33.12,14.15,46.38,1010.30,2017.50,3457.44,3059.00,3501.00,599.52,583.24,7.25,0000 0000 0000 0000 000000
2017-05-27 07:11:56,-0.00,0.06,0.00,27.39,30.45,33.12,14.09,46.40,1010.29,2017.41,3457.03,3059.00,3500.97,599.91,583.58,7.30,0000 0000 0000 0000 000000
2017-05-27 07:16:58,0.01,0.06,0.00,27.38,30.45,33.12,14.16,46.40,1010.30,2017.39,3456.98,3058.91,3500.48,600.09,583.78,7.35,0000 0000 0000 0000 000000
2017-05-27 07:21:59,0.02,0.06,0.00,27.39,30.47,33.14,14.13,46.36,1010.35,2017.33,3456.44,3058.44,3500.07,600.13,583.86,7.40,0000 0000 0000 0000 000000
2017-05-27 07:27:00,-0.01,0.06,0.00,27.40,30.47,33.13,14.13,46.49,1010.41,2017.13,3456.00,3058.03,3500.00,600.22,584.06,7.45,0000 0000 0000 0000 000000
2017-05-27 07:32:01,0.00,0.06,0.00,27.40,30.47,33.13,14.16,46.47,1010.54,2017.09,3455.98,3058.00,3499.94,600.14,583.94,7.50,0000 0000 0000 0000 000000
2017-05-27 07:37:03,0.03,0.06,0.00,27.39,30.47,33.13,14.15,46.50,1010.63,2017.15,3455.57,3058.00,3499.41,600.13,584.00,7.55,0000 0000 0000 0000 000000
2017-05-27 07:42:04,0.00,0.06,0.00,27.39,30.48,33.13,14.17,46.58,1010.64,2017.11,3455.04,3057.98,3499.05,599.81,583.73,7.60,0000 0000 0000 0000 000000
2017-05-27 07:47:05,0.01,0.06,0.00,27.40,30.49,33.15,14.06,46.33,1010.70,2017.07,3454.99,3057.57,3499.00,599.84,583.79,7.65,0000 0000 0000 0000 000000
2017-05-27 07:52:06,0.01,0.07,0.00,27.40,30.50,33.15,14.06,46.36,1010.70,2017.02,3454.64,3057.07,3498.89,599.74,583.45,7.70,0000 0000 0000 0000 000000
2017-05-27 07:57:07,0.01,0.07,0.00,27.39,30.50,33.16,14.14,46.42,1010.71,2017.01,3454.04,3057.00,3498.24,600.02,583.89,7.75,0000 0000 0000 0000 000000
2017-05-27 08:02:08,0.00,0.07,0.00,27.38,30.50,33.16,14.11,46.44,1010.74,2017.02,3453.99,3057.00,3498.01,599.89,583.83,7.80,0000 0000 0000 0000 000000
2017-05-27 08:07:09,0.00,0.07,0.00,27.38,30.50,33.16,14.14,46.49,1010.76,2017.03,3453.93,3056.97,3498.00,600.18,584.19,7.85,0000 0000 0000 0000 000000
2017-05-27 08:12:10,0.01,0.07,0.00,27.39,30.50,33.18,14.09,46.49,1010.76,2017.01,3453.30,3056.84,3497.95,599.64,583.63,7.90,0000 0000 0000 0000 000000
2017-05-27 08:17:11,0.03,0.07,0.00,27.38,30.50,33.16,14.14,46.42,1010.76,2017.01,3453.01,3056.27,3497.52,600.41,584.40,7.95,0000 0000 0000 0000 000000
2017-05-27 08:22:13,0.01,0.07,0.00,27.39,30.51,33.17,14.09,46.38,1010.77,2017.00,3452.77,3056.01,3497.02,599.62,583.59,8.00,0000 0000 0000 0000 000000
2017-05-27 08:27:14,0.00,0.07,0.00,27.40,30.52,33.18,14.14,46.43,1010.77,2017.00,3452.16,3056.00,3497.00,600.18,584.10,8.05,0000 0000 0000 0000 000000
2017-05-27 08:32:15,0.02,0.07,0.00,27.39,30.52,33.17,14.17,46.35,1010.78,2017.00,3451.71,3055.89,3496.59,600.16,584.09,8.10,0000 0000 0000 0000 000000
2017-05-27 08:37:17,0.01,0.07,0.00,27.38,30.52,33.16,14.15,46.32,1010.82,2017.00,3451.06,3055.43,3496.03,600.01,584.01,8.15,0000 0000 0000 0000 000000
2017-05-27 08:42:18,0.01,0.07,0.00,27.38,30.52,33.18,14.11,46.52,1010.89,2017.00,3450.99,3055.06,3496.00,600.06,584.05,8.20,0000 0000 0000 0000 000000
2017-05-27 08:47:19,0.01,0.07,0.00,27.37,30.52,33.16,14.17,46.53,1010.94,2017.00,3450.65,3055.00,3495.96,600.03,584.20,8.25,0000 0000 0000 0000 000000
2017-05-27 08:52:21,0.01,0.07,0.00,27.37,30.52,33.19,14.12,46.44,1011.17,2017.00,3450.20,3054.99,3495.76,599.95,584.22,8.30,0000 0000 0000 0000 000000
2017-05-27 08:57:22,0.01,0.07,0.00,27.37,30.52,33.19,14.15,46.47,1011.24,2017.00,3450.00,3054.92,3495.12,599.80,584.07,8.35,0000 0000 0000 0000 000000
2017-05-27 09:02:23,0.01,0.08,0.00,27.36,30.52,33.21,14.17,46.50,1011.24,2017.00,3449.97,3054.62,3495.01,600.29,584.52,8.40,0000 0000 0000 0000 000000
2017-05-27 09:07:25,0.02,0.08,0.00,27.35,30.52,33.17,14.04,46.54,1011.25,2017.00,3449.59,3054.16,3495.00,599.89,584.15,8.45,0000 0000 0000 0000 000000
2017-05-27 09:12:26,0.01,0.08,0.00,27.36,30.52,33.19,14.17,46.44,1011.25,2017.00,3449.07,3054.03,3494.96,599.81,584.07,8.50,0000 0000 0000 0000 000000
2017-05-27 09:17:27,0.00,0.08,0.00,27.37,30.52,33.17,14.18,46.46,1011.27,2017.00,3449.00,3054.00,3494.73,599.79,584.01,8.55,0000 0000 0000 0000 000000
2017-05-27 09:22:28,0.01,0.08,0.00,27.35,30.52,33.17,14.15,46.41,1011.27,2017.00,3449.00,3054.00,3494.24,599.82,584.27,8.60,0000 0000 0000 0000 000000
2017-05-27 09:27:29,0.00,0.08,0.00,27.35,30.52,33.16,14.09,46.48,1011.34,2017.00,3448.96,3053.99,3494.06,599.78,584.21,8.65,0000 0000 0000 0000 000000
2017-05-27 09:32:30,0.00,0.08,0.00,27.35,30.52,33.19,14.13,46.42,1011.48,2017.00,3448.50,3053.97,3494.01,599.53,583.92,8.70,0000 0000 0000 0000 000000
2017-05-27 09:37:32,0.00,0.08,0.00,27.34,30.52,33.17,14.26,46.52,1011.54,2017.00,3448.04,3053.92,3494.00,600.31,584.79,8.75,0000 0000 0000 0000 000000
2017-05-27 09:42:33,0.00,0.08,0.00,27.33,30.51,33.18,14.22,46.58,1011.57,2017.00,3448.00,3053.73,3493.98,600.11,584.64,8.80,0000 0000 0000 0000 000000
2017-05-27 09:47:34,0.02,0.08,0.00,27.34,30.51,33.17,14.06,46.46,1011.52,2017.00,3448.00,3053.11,3493.66,599.58,584.10,8.85,0000 0000 0000 0000 000000
2017-05-27 09:52:35,0.01,0.08,0.00,27.33,30.50,33.22,14.25,46.58,1011.63,2017.00,3447.86,3053.01,3493.22,600.13,584.69,8.90,0000 0000 0000 0000 000000
2017-05-27 09:57:37,0.01,0.08,0.00,27.32,30.50,33.18,14.20,46.48,1011.67,2017.00,3447.06,3053.00,3493.01,600.05,584.67,8.95,0000 0000 0000 0000 000000
2017-05-27 10:02:38,0.00,0.08,0.00,27.32,30.50,33.19,14.18,46.45,1011.68,2017.00,3447.00,3053.00,3493.00,600.18,584.92,9.00,0000 0000 0000 0000 000000
2017-05-27 10:07:39,0.00,0.08,0.00,27.32,30.50,33.17,14.22,46.44,1011.71,2017.00,3447.00,3052.99,3493.00,600.14,584.78,9.05,0000 0000 0000 0000 000000
2017-05-27 10:12:40,0.00,0.08,0.00,27.29,30.50,33.15,14.22,46.59,1011.72,2017.02,3446.91,3052.95,3492.98,600.47,585.03,9.10,0000 0000 0000 0000 000000
2017-05-27 10:17:42,0.03,0.08,0.00,27.28,30.50,33.15,14.11,46.48,1011.73,2017.00,3446.27,3052.48,3492.55,599.74,584.55,9.15,0000 0000 0000 0000 000000
2017-05-27 10:22:43,0.01,0.08,0.00,27.28,30.50,33.15,14.19,46.42,1011.73,2017.00,3446.01,3052.10,3492.06,600.38,585.05,9.20,0000 0000 0000 0000 000000
2017-05-27 10:27:44,0.00,0.08,0.00,27.27,30.49,33.14,14.15,46.33,1011.73,2017.01,3446.00,3052.01,3492.01,600.08,584.66,9.25,0000 0000 0000 0000 000000
2017-05-27 10:32:45,-0.00,0.08,0.00,27.26,30.47,33.13,14.17,46.46,1011.74,2017.00,3445.99,3052.00,3492.00,600.05,584.92,9.30,0000 0000 0000 0000 000000
2017-05-27 10:37:47,0.00,0.08,0.00,27.25,30.47,33.14,14.09,46.40,1011.75,2017.01,3445.83,3051.99,3491.99,600.02,584.77,9.35,0000 0000 0000 0000 000000
2017-05-27 10:42:48,0.01,0.08,0.00,27.25,30.47,33.15,14.11,46.44,1011.76,2017.02,3445.35,3051.99,3491.97,599.97,584.77,9.40,0000 0000 0000 0000 000000
2017-05-27 10:47:50,0.00,0.09,0.00,27.23,30.47,33.14,14.16,46.45,1011.75,2017.02,3445.04,3051.99,3491.72,599.80,584.74,9.45,0000 0000 0000 0000 000000
2017-05-27 10:52:51,0.01,0.09,0.00,27.24,30.47,33.13,14.13,46.49,1011.77,2017.04,3445.00,3051.97,3491.24,600.06,584.85,9.51,0000 0000 0000 0000 000000
2017-05-27 10:57:53,0.00,0.09,0.00,27.22,30.45,33.13,14.20,46.48,1011.90,2017.03,3445.00,3051.90,3491.05,600.12,585.09,9.56,0000 0000 0000 0000 000000
2017-05-27 11:02:54,0.01,0.09,0.00,27.21,30.45,33.12,14.21,46.45,1012.10,2017.03,3444.98,3051.57,3491.00,600.09,585.25,9.61,0000 0000 0000 0000 000000
2017-05-27 11:07:56,0.01,0.09,0.00,27.20,30.45,33.11,14.09,46.43,1011.96,2017.03,3444.62,3051.12,3491.00,599.78,584.81,9.66,0000 0000 0000 0000 000000
2017-05-27 11:12:57,0.01,0.09,0.00,27.19,30.45,33.14,14.14,46.43,1011.94,2017.05,3444.13,3051.05,3490.99,599.94,584.95,9.71,0000 0000 0000 0000 000000
2017-05-27 11:17:58,0.01,0.09,0.00,27.17,30.43,33.10,14.07,46.35,1012.08,2017.08,3444.02,3051.01,3490.95,599.42,584.51,9.76,0000 0000 0000 0000 000000
2017-05-27 11:22:59,0.01,0.09,0.00,27.15,30.42,33.08,14.19,46.41,1012.15,2017.14,3444.00,3051.00,3490.82,600.11,585.28,9.81,0000 0000 0000 0000 000000
2017-05-27 11:28:00,0.02,0.09,0.00,27.15,30.42,33.11,14.18,46.45,1012.18,2017.31,3443.99,3051.00,3490.64,599.88,585.25,9.86,0000 0000 0000 0000 000000
2017-05-27 11:33:01,0.02,0.09,0.00,27.13,30.42,33.07,14.16,46.51,1012.21,2017.50,3443.82,3050.97,3490.18,600.34,585.63,9.91,0000 0000 0000 0000 000000
2017-05-27 11:38:02,0.03,0.09,0.00,27.13,30.40,33.08,14.16,46.48,1012.22,2017.60,3443.04,3050.78,3490.00,600.17,585.41,9.96,0000 0000 0000 0000 000000
2017-05-27 11:43:04,0.02,0.09,0.00,27.12,30.40,33.09,14.25,46.55,1012.22,2017.68,3442.98,3050.37,3489.99,600.26,585.39,10.01,0000 0000 0000 0000 000000
2017-05-27 11:48:05,0.01,0.09,0.00,27.11,30.39,33.09,14.15,46.51,1012.22,2017.76,3442.95,3050.12,3489.95,599.44,584.81,10.06,0000 0000 0000 0000 000000
2017-05-27 11:53:06,0.01,0.09,0.00,27.10,30.38,33.05,14.25,46.50,1012.22,2017.83,3442.69,3050.04,3489.89,599.91,585.27,10.11,0000 0000 0000 0000 000000
2017-05-27 11:58:07,0.01,0.10,0.00,27.08,30.37,33.05,14.32,46.55,1012.22,2017.80,3442.16,3050.02,3489.57,600.31,585.68,10.16,0000 0000 0000 0000 000000
2017-05-27 12:03:09,0.01,0.10,0.00,27.08,30.37,33.03,14.18,46.47,1012.22,2017.90,3442.05,3050.01,3489.31,599.99,585.31,10.21,0000 0000 0000 0000 000000
2017-05-27 12:08:10,-0.00,0.10,0.00,27.06,30.35,33.03,14.22,46.39,1012.22,2017.96,3442.04,3050.02,3489.38,600.28,585.59,10.26,0000 0000 0000 0000 000000
2017-05-27 12:13:12,0.00,0.10,0.00,27.05,30.35,33.01,14.17,46.52,1012.22,2017.97,3442.00,3050.01,3489.13,599.71,585.18,10.31,0000 0000 0000 0000 000000
2017-05-27 12:18:13,0.00,0.10,0.00,27.04,30.34,33.02,14.13,46.43,1012.22,2017.98,3442.00,3050.00,3489.03,599.92,585.44,10.36,0000 0000 0000 0000 000000
2017-05-27 12:23:14,0.00,0.10,0.00,27.02,30.32,32.99,14.12,46.50,1012.22,2017.98,3441.99,3050.00,3489.02,599.60,585.18,10.41,0000 0000 0000 0000 000000
2017-05-27 12:28:15,0.00,0.10,0.00,27.01,30.32,32.97,14.23,46.49,1012.23,2017.99,3441.92,3050.00,3489.01,600.24,585.83,10.46,0000 0000 0000 0000 000000
2017-05-27 12:33:16,0.00,0.10,0.00,27.00,30.30,32.98,14.19,46.41,1012.23,2017.99,3441.84,3050.00,3489.00,599.86,585.57,10.51,0000 0000 0000 0000 000000
2017-05-27 12:38:17,0.01,0.10,0.00,26.98,30.30,32.97,14.20,46.42,1012.26,2017.99,3441.24,3049.98,3488.99,600.07,585.67,10.56,0000 0000 0000 0000 000000
2017-05-27 12:43:19,0.00,0.10,0.00,26.96,30.29,32.97,14.13,46.43,1012.34,2017.99,3441.07,3049.98,3488.99,599.85,585.55,10.61,0000 0000 0000 0000 000000
2017-05-27 12:48:20,0.00,0.10,0.00,26.96,30.27,32.98,14.12,46.42,1012.42,2018.00,3441.00,3049.98,3488.98,600.08,585.74,10.66,0000 0000 0000 0000 000000
2017-05-27 12:53:21,0.00,0.10,0.00,26.95,30.27,32.96,14.18,46.58,1012.56,2018.00,3441.00,3049.95,3488.97,600.08,585.99,10.71,0000 0000 0000 0000 000000
2017-05-27 12:58:23,0.00,0.10,0.00,26.94,30.25,32.94,14.27,46.58,1012.60,2018.00,3441.00,3049.92,3488.95,600.04,585.99,10.76,0000 0000 0000 0000 000000